February 26, 2024
Temp
 
55.3 °F
 
Dew Pt.
 
52.4 °F
 
Humidity
 
90%
 
Pressure
 
1014.5 hPa 
  steady
Wind
 
0.0 mph 
    WSW
Rain
 
0.06 in 
  0.00 in/hr
UV index
 
---  
 
Solar rad.
 
100 W/m²
 
Statistics - 2/26/2024
Max Temp 64.9 °F  1:55 pm
Min Temp 51.8 °F  2:45 am
Max Dew Pt 53.3 °F  1:40 pm
Min Dew Pt 45.8 °F  3:40 am
Max Pressure 1018.1 hPa  10:45 am
Min Pressure 1013.3 hPa  2:40 pm
Max Wind 255 mph  7:15 am
Max UV —   —
Max Solar —   —
Max Rainfall Rate 0.16 in/hr  7:15 pm
Total Precipitation 0.06 in  
Current Temp 55.3 °F  9:00 pm
Temp 24hr ago 55.5 °F  9:00 pm
Difference -0.2 °F  
Temp Rate -1.2 °F/hr  
Pressure Rate +0.8 hPa/hr  
time temp dew pt pressure uv solar wind wind speed rainfall rate
00:00 53.4 °F 49.0 °F 1017.4 hPa  Calm    
00:05 53.4 °F 49.0 °F 1017.3 hPa  Calm    
00:10 53.4 °F 49.0 °F 1017.4 hPa  Calm    
00:15 53.4 °F 49.0 °F 1017.4 hPa  Calm    
00:20 53.3 °F 48.9 °F 1017.5 hPa  Calm    
00:25 53.3 °F 48.9 °F 1017.7 hPa  Calm    
00:30 53.2 °F 48.8 °F 1018.0 hPa  SW 1 mph   
00:35 53.2 °F 48.8 °F 1017.8 hPa  Calm    
00:40 53.2 °F 48.8 °F 1017.5 hPa  Calm    
00:45 53.1 °F 48.4 °F 1017.5 hPa  Calm    
00:50 53.1 °F 48.4 °F 1017.5 hPa  Calm    
00:55 53.0 °F 48.3 °F 1017.3 hPa  Calm    
01:00 52.8 °F 48.1 °F 1017.2 hPa  Calm    
01:05 52.8 °F 48.1 °F 1017.2 hPa  Calm    
01:10 52.7 °F 48.0 °F 1017.1 hPa  Calm    
01:15 52.6 °F 47.9 °F 1016.8 hPa  Calm    
01:20 52.4 °F 47.7 °F 1016.8 hPa  Calm    
01:25 52.3 °F 47.6 °F 1016.8 hPa  Calm    
01:30 52.2 °F 47.5 °F 1016.8 hPa  Calm    
01:35 52.2 °F 47.5 °F 1016.9 hPa  Calm    
01:40 52.1 °F 47.4 °F 1016.9 hPa  Calm    
01:45 52.1 °F 47.4 °F 1016.8 hPa  Calm    
01:50 52.1 °F 47.7 °F 1016.7 hPa  Calm    
01:55 52.0 °F 47.6 °F 1016.7 hPa  Calm    
02:00 52.0 °F 47.6 °F 1016.9 hPa  Calm    
02:05 52.1 °F 47.7 °F 1017.0 hPa  Calm    
02:10 52.1 °F 47.7 °F 1016.9 hPa  Calm    
02:15 52.1 °F 47.7 °F 1016.8 hPa  Calm    
02:20 52.1 °F 47.7 °F 1016.9 hPa  Calm    
02:25 52.0 °F 47.6 °F 1017.0 hPa  SW 3 mph   
02:30 51.9 °F 47.2 °F 1016.9 hPa  SW 4 mph   
02:35 51.9 °F 46.9 °F 1016.8 hPa  SW 4 mph   
02:40 51.8 °F 46.2 °F 1016.7 hPa  SW 3 mph   
02:45 52.0 °F 46.4 °F 1016.6 hPa  Calm    
02:50 52.1 °F 46.4 °F 1016.6 hPa  SW 3 mph   
02:55 52.0 °F 46.4 °F 1016.5 hPa  SW 2 mph   
03:00 52.0 °F 46.4 °F 1016.4 hPa  Calm    
03:05 52.0 °F 46.4 °F 1016.4 hPa  Calm    
03:10 52.0 °F 46.4 °F 1016.5 hPa  Calm    
03:15 51.9 °F 46.3 °F 1016.6 hPa  Calm    
03:20 52.0 °F 46.4 °F 1016.7 hPa  Calm    
03:25 52.0 °F 46.0 °F 1016.6 hPa  Calm    
03:30 52.0 °F 46.0 °F 1016.4 hPa  Calm    
03:35 52.0 °F 46.0 °F 1016.3 hPa  Calm    
03:40 52.1 °F 45.8 °F 1016.3 hPa  Calm    
03:45 52.2 °F 45.9 °F 1016.4 hPa  Calm    
03:50 52.2 °F 45.9 °F 1016.5 hPa  Calm    
03:55 52.2 °F 45.9 °F 1016.2 hPa  Calm    
04:00 52.2 °F 45.9 °F 1016.3 hPa  Calm    
04:05 52.3 °F 46.3 °F 1016.5 hPa  Calm    
04:10 52.3 °F 46.3 °F 1016.6 hPa  Calm    
04:15 52.2 °F 45.9 °F 1016.8 hPa  SW 1 mph   
04:20 52.5 °F 45.8 °F 1016.8 hPa  Calm    
04:25 52.7 °F 46.0 °F 1017.0 hPa  Calm    
04:30 52.8 °F 45.8 °F 1017.1 hPa  Calm    
04:35 52.9 °F 45.9 °F 1017.1 hPa  Calm    
04:40 53.0 °F 46.0 °F 1017.0 hPa  Calm    
04:45 53.1 °F 46.4 °F 1017.1 hPa  Calm    
04:50 53.3 °F 47.0 °F 1017.0 hPa  Calm    
04:55 53.5 °F 47.1 °F 1017.2 hPa  Calm    
05:00 53.7 °F 47.7 °F 1017.2 hPa  Calm    
05:05 53.8 °F 48.1 °F 1017.2 hPa  Calm    
05:10 53.8 °F 48.1 °F 1017.2 hPa  Calm    
05:15 53.7 °F 48.0 °F 1017.2 hPa  Calm    
05:20 53.8 °F 48.1 °F 1017.1 hPa  Calm    
05:25 53.7 °F 48.0 °F 1016.9 hPa  Calm    
05:30 53.6 °F 47.6 °F 1016.7 hPa  Calm    
05:35 53.7 °F 47.7 °F 1016.7 hPa  Calm    
05:40 53.8 °F 47.1 °F 1016.6 hPa  Calm    
05:45 53.9 °F 47.2 °F 1016.5 hPa  Calm    
05:50 53.8 °F 47.1 °F 1016.4 hPa  Calm    
05:55 53.8 °F 46.8 °F 1016.2 hPa  Calm    
06:00 53.7 °F 46.7 °F 1016.1 hPa  Calm    
06:05 53.7 °F 46.7 °F 1016.0 hPa  Calm    
06:10 53.5 °F 46.8 °F 1016.1 hPa  Calm    
06:15 53.3 °F 46.6 °F 1016.1 hPa  Calm    
06:20 53.2 °F 46.5 °F 1016.2 hPa  Calm    
06:25 53.0 °F 46.3 °F 1016.2 hPa  Calm    
06:30 52.9 °F 46.2 °F 1016.4 hPa  Calm    
06:35 52.8 °F 46.1 °F 1016.6 hPa  Calm    
06:40 52.7 °F 46.0 °F 1016.6 hPa  Calm    
06:45 52.6 °F 45.9 °F 1016.5 hPa  Calm    
06:50 52.6 °F 46.3 °F 1016.4 hPa  Calm    
06:55 52.6 °F 46.3 °F 1016.2 hPa  Calm    
07:00 52.6 °F 46.3 °F 1016.2 hPa  Calm    
07:05 52.6 °F 46.6 °F 1016.1 hPa  Calm    
07:10 52.6 °F 46.6 °F 1015.8 hPa  Calm    
07:15 52.6 °F 46.6 °F 1015.7 hPa  Calm    
07:20 52.6 °F 46.3 °F 1015.6 hPa  Calm    
07:25 52.7 °F 46.4 °F 1015.7 hPa  Calm    
07:30 52.8 °F 46.8 °F 1015.7 hPa  Calm    
07:35 53.0 °F 47.0 °F 1015.7 hPa  SSW 1 mph   
07:40 53.2 °F 47.2 °F 1015.8 hPa  W 1 mph   
07:45 53.3 °F 47.0 °F 1015.9 hPa  WSW 2 mph   
07:50 53.5 °F 46.8 °F 1016.0 hPa  W 1 mph   
07:55 53.7 °F 47.0 °F 1016.3 hPa  Calm    
08:00 53.8 °F 47.1 °F 1016.5 hPa  W 3 mph   
08:05 54.1 °F 47.4 °F 1016.4 hPa  WSW 4 mph   
08:10 54.4 °F 47.3 °F 1016.4 hPa  WNW 4 mph   
08:15 54.6 °F 47.5 °F 1016.3 hPa  W 2 mph   
08:20 54.7 °F 47.6 °F 1016.2 hPa  ESE 1 mph   
08:25 54.8 °F 47.7 °F 1016.3 hPa  Calm    
08:30 54.8 °F 47.7 °F 1016.4 hPa  Calm    
08:35 54.9 °F 47.8 °F 1016.4 hPa  Calm    
08:40 55.0 °F 47.9 °F 1016.5 hPa  Calm    
08:45 55.1 °F 48.0 °F 1016.5 hPa  Calm    
08:50 55.2 °F 48.1 °F 1016.5 hPa  SSE 3 mph   
08:55 55.3 °F 48.2 °F 1016.5 hPa  SW 1 mph   
09:00 55.5 °F 48.4 °F 1016.9 hPa  SSW 2 mph   
09:05 55.7 °F 48.6 °F 1017.1 hPa  WSW 2 mph   
09:10 55.9 °F 48.8 °F 1017.4 hPa  W 3 mph   
09:15 56.1 °F 48.6 °F 1017.6 hPa  WNW 2 mph   
09:20 56.5 °F 49.0 °F 1017.8 hPa  W 3 mph   
09:25 56.7 °F 49.2 °F 1017.7 hPa  SW 4 mph   
09:30 56.9 °F 49.1 °F 1017.7 hPa  WNW 4 mph   
09:35 57.0 °F 48.8 °F 1017.6 hPa  WSW 4 mph   
09:40 57.2 °F 49.0 °F 1017.5 hPa  W 4 mph   
09:45 57.5 °F 49.3 °F 1017.8 hPa  WSW 5 mph   
09:50 57.7 °F 49.1 °F 1017.8 hPa  WSW 6 mph   
09:55 57.9 °F 49.3 °F 1017.9 hPa  ENE 3 mph   
10:00 58.2 °F 48.8 °F 1018.0 hPa  WSW 4 mph   
10:05 58.4 °F 49.0 °F 1018.0 hPa  W 3 mph   
10:10 58.6 °F 49.6 °F 1017.9 hPa  W 4 mph   
10:15 58.7 °F 49.3 °F 1017.8 hPa  W 6 mph   
10:20 58.8 °F 49.4 °F 1017.9 hPa  WSW 6 mph   
10:25 59.0 °F 50.0 °F 1017.9 hPa  WSW 5 mph   
10:30 59.1 °F 50.5 °F 1017.8 hPa  WSW 3 mph   
10:35 59.3 °F 50.6 °F 1018.0 hPa  W 1 mph   
10:40 59.4 °F 50.7 °F 1018.1 hPa  SW 2 mph   
10:45 59.5 °F 50.8 °F 1018.0 hPa  SSW 1 mph   
10:50 59.6 °F 50.9 °F 1018.0 hPa  SW 1 mph   
10:55 59.7 °F 51.4 °F 1017.8 hPa  S 1 mph   
11:00 59.8 °F 51.1 °F 1017.9 hPa  SSW 2 mph   
11:05 59.8 °F 51.1 °F 1017.9 hPa  WSW 1 mph   
11:10 59.8 °F 51.1 °F 1017.7 hPa  WSW 1 mph   
11:15 59.8 °F 51.1 °F 1017.6 hPa  Calm    
11:20 59.9 °F 51.2 °F 1017.4 hPa  E 2 mph   
11:25 60.0 °F 51.3 °F 1017.2 hPa  E 1 mph   
11:30 60.0 °F 51.3 °F 1017.1 hPa  SE 1 mph   
11:35 60.0 °F 51.3 °F 1017.1 hPa  SSE 1 mph   
11:40 60.1 °F 51.4 °F 1017.1 hPa  SSW 2 mph   
11:45 60.3 °F 51.6 °F 1016.8 hPa  SSW 2 mph   
11:50 60.5 °F 51.8 °F 1016.5 hPa  ESE 1 mph   
11:55 60.7 °F 51.6 °F 1016.4 hPa  SW 1 mph   
12:00 61.1 °F 52.0 °F 1016.2 hPa  WSW 3 mph   
12:05 61.4 °F 51.9 °F 1016.0 hPa  SSW 3 mph   
12:10 61.7 °F 51.8 °F 1016.0 hPa  SSW 1 mph   
12:15 62.1 °F 51.8 °F 1015.9 hPa  S 4 mph   
12:20 62.3 °F 52.0 °F 1015.9 hPa  S 4 mph   
12:25 62.5 °F 52.2 °F 1015.9 hPa  SSW 4 mph   
12:30 62.5 °F 52.2 °F 1015.7 hPa  SW 5 mph   
12:35 62.6 °F 51.9 °F 1015.7 hPa  SW 4 mph   
12:40 62.6 °F 51.9 °F 1015.6 hPa  SW 5 mph   
12:45 62.6 °F 51.9 °F 1015.5 hPa  SW 2 mph   
12:50 62.6 °F 51.5 °F 1015.3 hPa  Calm    
12:55 62.7 °F 52.4 °F 1015.1 hPa  SW 2 mph   
13:00 62.9 °F 52.6 °F 1015.0 hPa  SW 2 mph   
13:05 62.9 °F 52.2 °F 1014.9 hPa  S 2 mph   
13:10 63.1 °F 52.4 °F 1014.8 hPa  WSW 2 mph   
13:15 63.2 °F 52.5 °F 1014.8 hPa  WSW 2 mph   
13:20 63.4 °F 52.6 °F 1014.6 hPa  SSW 3 mph   
13:25 63.5 °F 52.3 °F 1014.3 hPa  S 1 mph   
13:30 63.7 °F 52.5 °F 1014.2 hPa  SW 4 mph   
13:35 64.2 °F 53.0 °F 1014.0 hPa  WSW 4 mph   
13:40 64.5 °F 53.3 °F 1014.2 hPa  SW 3 mph   
13:45 64.7 °F 53.1 °F 1014.1 hPa  SW 3 mph   
13:50 64.8 °F 52.8 °F 1014.2 hPa  WSW 3 mph   
13:55 64.8 °F 52.3 °F 1014.2 hPa  WSW 3 mph   
14:00 64.6 °F 52.6 °F 1014.0 hPa  WSW 1 mph   
14:05 64.5 °F 52.5 °F 1013.8 hPa  SW 1 mph   
14:10 64.5 °F 52.5 °F 1013.7 hPa  SW 2 mph   
14:15 64.5 °F 52.9 °F 1013.5 hPa  WSW 3 mph   
14:20 64.7 °F 52.7 °F 1013.7 hPa  WSW 6 mph   
14:25 64.7 °F 52.7 °F 1013.7 hPa  W 5 mph   
14:30 64.8 °F 52.8 °F 1013.6 hPa  WSW 2 mph   
14:35 64.8 °F 52.3 °F 1013.4 hPa  Calm    
14:40 64.8 °F 52.3 °F 1013.3 hPa  SSE 3 mph   
14:45 64.7 °F 51.8 °F 1013.5 hPa  SW 3 mph   
14:50 64.7 °F 51.8 °F 1013.6 hPa  WSW 4 mph   
14:55 64.5 °F 52.0 °F 1013.5 hPa  WSW 2 mph   
15:00 64.4 °F 51.5 °F 1013.6 hPa  SW 3 mph   
15:05 64.3 °F 51.4 °F 1013.7 hPa  WSW 3 mph   
15:10 64.2 °F 51.3 °F 1013.7 hPa  WSW 3 mph   
15:15 64.0 °F 51.6 °F 1013.8 hPa  WSW 3 mph   
15:20 63.9 °F 51.9 °F 1014.1 hPa  WSW 5 mph   
15:25 63.6 °F 51.6 °F 1014.3 hPa  WSW 6 mph   
15:30 63.4 °F 51.4 °F 1014.5 hPa  WSW 7 mph   
15:35 63.2 °F 51.2 °F 1014.4 hPa  WSW 7 mph   
15:40 63.2 °F 51.2 °F 1014.2 hPa  WSW 3 mph   
15:45 63.2 °F 51.6 °F 1014.1 hPa  SW 5 mph   
15:50 63.1 °F 51.6 °F 1014.0 hPa  WSW 6 mph   
15:55 63.1 °F 51.6 °F 1014.1 hPa  SW 4 mph   
16:00 63.0 °F 51.5 °F 1014.1 hPa  WSW 6 mph   
16:05 63.0 °F 51.5 °F 1014.2 hPa  SW 3 mph   
16:10 62.9 °F 51.4 °F 1014.1 hPa  WSW 4 mph   
16:15 62.7 °F 50.8 °F 1014.0 hPa  W 3 mph   
16:20 62.6 °F 49.8 °F 1014.0 hPa  WSW 5 mph   
16:25 62.3 °F 49.5 °F 1013.9 hPa  W 3 mph   
16:30 62.2 °F 49.9 °F 1014.0 hPa  WNW 4 mph   
16:35 61.9 °F 49.6 °F 1014.0 hPa  WNW 5 mph   
16:40 61.7 °F 50.2 °F 1014.1 hPa  W 3 mph   
16:45 61.6 °F 50.9 °F 1014.2 hPa  SW 5 mph   
16:50 61.4 °F 51.1 °F 1014.2 hPa  W 4 mph   
16:55 61.1 °F 50.8 °F 1014.3 hPa  WSW 5 mph   
17:00 60.8 °F 50.2 °F 1014.3 hPa  WSW 5 mph   
17:05 60.5 °F 50.3 °F 1014.3 hPa  W 3 mph   
17:10 60.4 °F 50.2 °F 1014.3 hPa  W 4 mph   
17:15 60.3 °F 50.5 °F 1014.3 hPa  W 4 mph   
17:20 60.1 °F 51.0 °F 1014.4 hPa  W 2 mph   
17:25 60.1 °F 51.8 °F 1014.6 hPa  WNW 4 mph   
17:30 59.8 °F 52.2 °F 1014.7 hPa  W 4 mph   
17:35 59.5 °F 52.6 °F 1014.6 hPa  NE 2 mph   
17:40 59.0 °F 52.8 °F 1014.5 hPa  ENE 5 mph   
17:45 58.8 °F 52.6 °F 1014.5 hPa  ENE 1 mph   
17:50 58.4 °F 52.9 °F 1014.4 hPa  WSW 1 mph    0.09 in/hr
17:55 58.2 °F 52.7 °F 1014.3 hPa  WSW 1 mph    0.06 in/hr
18:00 58.0 °F 52.9 °F 1014.4 hPa  Calm     0.04 in/hr
18:05 57.9 °F 52.8 °F 1014.3 hPa  Calm    
18:10 57.7 °F 52.6 °F 1014.3 hPa  Calm    
18:15 57.6 °F 52.8 °F 1014.3 hPa  Calm    
18:20 57.5 °F 52.7 °F 1014.3 hPa  Calm    
18:25 57.4 °F 52.6 °F 1014.2 hPa  Calm    
18:30 57.3 °F 52.8 °F 1014.2 hPa  Calm    
18:35 57.2 °F 53.0 °F 1014.3 hPa  Calm    
18:40 57.1 °F 53.0 °F 1014.3 hPa  SE 1 mph   
18:45 56.9 °F 53.1 °F 1014.3 hPa  ESE 1 mph   
18:50 56.8 °F 53.0 °F 1014.4 hPa  E 2 mph   
18:55 56.7 °F 52.9 °F 1014.5 hPa  E 2 mph   
19:00 56.6 °F 52.8 °F 1014.6 hPa  ENE 1 mph   
19:05 56.5 °F 52.7 °F 1014.7 hPa  Calm    
19:10 56.4 °F 52.6 °F 1014.7 hPa  Calm    
19:15 56.3 °F 52.5 °F 1014.6 hPa  Calm     0.16 in/hr
19:20 56.2 °F 52.4 °F 1014.6 hPa  Calm     0.09 in/hr
19:25 56.1 °F 52.3 °F 1014.5 hPa  Calm     0.09 in/hr
19:30 56.0 °F 52.2 °F 1014.6 hPa  ENE 1 mph    0.06 in/hr
19:35 56.0 °F 52.5 °F 1014.4 hPa  WSW 1 mph    0.04 in/hr
19:40 55.9 °F 52.4 °F 1014.4 hPa  Calm    
19:45 55.8 °F 52.3 °F 1014.3 hPa  Calm    
19:50 55.8 °F 52.3 °F 1014.2 hPa  WSW 1 mph   
19:55 55.7 °F 52.2 °F 1014.3 hPa  WSW 1 mph   
20:00 55.8 °F 52.6 °F 1014.3 hPa  Calm    
20:05 55.7 °F 52.5 °F 1014.2 hPa  Calm    
20:10 55.6 °F 52.4 °F 1014.2 hPa  SW 1 mph   
20:15 55.6 °F 52.4 °F 1014.2 hPa  Calm    
20:20 55.5 °F 52.3 °F 1014.3 hPa  Calm    
20:25 55.5 °F 52.3 °F 1014.4 hPa  Calm    
20:30 55.5 °F 52.6 °F 1014.6 hPa  Calm    
20:35 55.5 °F 52.3 °F 1014.6 hPa  Calm    
20:40 55.4 °F 52.5 °F 1014.6 hPa  SW 1 mph   
20:45 55.4 °F 52.5 °F 1014.6 hPa  SW 1 mph   
20:50 55.5 °F 52.6 °F 1014.6 hPa  Calm    
20:55 55.4 °F 52.5 °F 1014.5 hPa  WSW 1 mph   
21:00 55.4 °F 52.5 °F 1014.5 hPa  Calm